Tracking 22459 objects as of 3-Mar-2021
HD Live streaming from Space Station
objects crossing your sky now

DELTA 2 R/B(1)

Track DELTA 2 R/B(1) now!
10-day predictions


NORAD ID: 22015
Int'l Code: 1992-039B
Perigee: 482.1 km
Apogee: 546.5 km
Inclination: 20.7 °
Period: 94.8 minutes
Semi major axis: 6885 km
RCS: 9.3859 m2 (large)
Launch date: July 7, 1992
Source: United States (US)
Launch site: AIR FORCE EASTERN TEST RANGE (AFETR)

Note: This is a ROCKET BODY
aabbcc
Your satellite tracking list
Your tracking list is empty




NASA's NSSDC Master Catalog

Two Line Element Set (TLE):
1 22015U 92039B   21062.14179095  .00002252  00000-0  75352-4 0  9997
2 22015  20.7155   3.2965 0046804 122.6984 237.7980 15.19557124596883
Source of the keplerian elements: AFSPC